Previsão horária em Faro

Hoje, 13 Abril, Terça-feira

Tempo Temperatura Precipitação Vento Pressão Humidade
00:00 +15°C° 0 mm 2 m/s 764 mmHg 84%
01:00 +15°C° 0 mm 2 m/s 764 mmHg 86%
02:00 +15°C° 0 mm 2 m/s 764 mmHg 89%
03:00 +14°C° 0 mm 3 m/s 764 mmHg 91%
04:00 +14°C° 0 mm 3 m/s 764 mmHg 94%
05:00 +14°C° 0 mm 3 m/s 764 mmHg 96%
06:00 +17°C° 0 mm 3 m/s 764 mmHg 86%
07:00 +19°C° 0 mm 2 m/s 764 mmHg 76%
08:00 +21°C° 0 mm 2 m/s 764 mmHg 67%
09:00 +23°C° 0 mm 2 m/s 764 mmHg 60%
10:00 +25°C° 0 mm 3 m/s 764 mmHg 54%
11:00 +26°C° 0 mm 3 m/s 764 mmHg 48%
12:00 +25°C° 0 mm 3 m/s 763 mmHg 52%
13:00 +25°C° 0 mm 3 m/s 763 mmHg 57%
14:00 +24°C° 0 mm 3 m/s 762 mmHg 62%
15:00 +24°C° 0 mm 2 m/s 762 mmHg 61%
16:00 +23°C° 0 mm 2 m/s 762 mmHg 65%
17:00 +22°C° 0 mm 1 m/s 762 mmHg 69%
18:00 +21°C° 0 mm 1 m/s 762 mmHg 73%
19:00 +20°C° 0 mm 1 m/s 762 mmHg 78%
20:00 +19°C° 0 mm 1 m/s 762 mmHg 83%
21:00 +17°C° 0 mm 2 m/s 762 mmHg 81%
22:00 +17°C° 0 mm 2 m/s 761 mmHg 80%
23:00 +17°C° 0 mm 2 m/s 761 mmHg 79%

Amanhã, 14 Abril, Quarta-feira

Tempo Temperatura Precipitação Vento Pressão Humidade
00:00 +17°C° 0 mm 2 m/s 761 mmHg 81%
01:00 +18°C° 0 mm 1 m/s 760 mmHg 83%
02:00 +16°C° 0 mm 1 m/s 760 mmHg 85%
03:00 +16°C° 0 mm 1 m/s 760 mmHg 86%
04:00 +16°C° 0 mm 1 m/s 760 mmHg 87%
05:00 +16°C° 0 mm 1 m/s 760 mmHg 88%
06:00 +17°C° 0 mm 2 m/s 760 mmHg 82%
07:00 +18°C° 0 mm 3 m/s 760 mmHg 77%
08:00 +20°C° 0 mm 4 m/s 760 mmHg 71%
09:00 +20°C° 0 mm 4 m/s 760 mmHg 68%
10:00 +21°C° 0 mm 4 m/s 760 mmHg 65%
11:00 +21°C° 0 mm 4 m/s 760 mmHg 62%
12:00 +20°C° 0 mm 4 m/s 759 mmHg 68%
13:00 +19°C° 0 mm 4 m/s 759 mmHg 73%
14:00 +17°C° 0 mm 5 m/s 759 mmHg 78%
15:00 +18°C° 0.1 mm 4 m/s 759 mmHg 81%
16:00 +17°C° 0.1 mm 3 m/s 759 mmHg 83%
17:00 +17°C° 0.1 mm 3 m/s 759 mmHg 85%
18:00 +17°C° 0.1 mm 3 m/s 759 mmHg 87%
19:00 +17°C° 0.1 mm 3 m/s 759 mmHg 90%
20:00 +16°C° 0.1 mm 3 m/s 759 mmHg 93%
21:00 +16°C° 0.2 mm 3 m/s 759 mmHg 93%
22:00 +15°C° 0.2 mm 4 m/s 759 mmHg 93%
23:00 +15°C° 0.2 mm 4 m/s 759 mmHg 94%

Depois de amanhã, 15 Abril, Quinta-feira

Tempo Temperatura Precipitação Vento Pressão Humidade
00:00 +14°C° 0.1 mm 4 m/s 759 mmHg 93%
01:00 +14°C° 0.1 mm 3 m/s 759 mmHg 93%
02:00 +14°C° 0.1 mm 3 m/s 758 mmHg 93%
03:00 +14°C° 0.1 mm 3 m/s 758 mmHg 93%
04:00 +14°C° 0.1 mm 3 m/s 758 mmHg 93%
05:00 +14°C° 0.1 mm 3 m/s 758 mmHg 93%
06:00 +16°C° 0.1 mm 3 m/s 758 mmHg 89%
07:00 +17°C° 0.1 mm 3 m/s 759 mmHg 84%
08:00 +18°C° 0.1 mm 3 m/s 759 mmHg 79%
09:00 +18°C° 0.1 mm 2 m/s 759 mmHg 78%
10:00 +18°C° 0.1 mm 2 m/s 759 mmHg 78%
11:00 +18°C° 0.1 mm 2 m/s 759 mmHg 77%
12:00 +18°C° 0.2 mm 2 m/s 759 mmHg 80%
13:00 +17°C° 0.2 mm 2 m/s 758 mmHg 84%
14:00 +17°C° 0.2 mm 2 m/s 758 mmHg 88%
15:00 +17°C° 0.4 mm 2 m/s 758 mmHg 90%
16:00 +16°C° 0.4 mm 2 m/s 758 mmHg 92%
17:00 +16°C° 0.4 mm 2 m/s 758 mmHg 95%
18:00 +16°C° 0.2 mm 2 m/s 759 mmHg 95%
19:00 +16°C° 0.2 mm 2 m/s 759 mmHg 96%
20:00 +15°C° 0.2 mm 1 m/s 760 mmHg 96%
21:00 +15°C° 0 mm 2 m/s 760 mmHg 96%
22:00 +15°C° 0 mm 2 m/s 760 mmHg 96%
23:00 +15°C° 0 mm 2 m/s 760 mmHg 96%

16 Abril, Sexta-feira

Tempo Temperatura Precipitação Vento Pressão Humidade
00:00 +14°C° 0 mm 3 m/s 759 mmHg 96%
01:00 +13°C° 0 mm 3 m/s 759 mmHg 96%
02:00 +13°C° 0 mm 3 m/s 759 mmHg 96%
03:00 +13°C° 0 mm 3 m/s 760 mmHg 95%
04:00 +12°C° 0 mm 3 m/s 760 mmHg 95%
05:00 +12°C° 0 mm 3 m/s 760 mmHg 94%
06:00 +14°C° 0 mm 3 m/s 760 mmHg 84%
07:00 +17°C° 0 mm 3 m/s 760 mmHg 74%
08:00 +19°C° 0 mm 2 m/s 761 mmHg 63%
09:00 +21°C° 0 mm 2 m/s 761 mmHg 57%
10:00 +24°C° 0 mm 2 m/s 761 mmHg 50%
11:00 +26°C° 0 mm 2 m/s 761 mmHg 43%
12:00 +25°C° 0 mm 2 m/s 761 mmHg 48%
13:00 +22°C° 0 mm 3 m/s 760 mmHg 54%
14:00 +21°C° 0 mm 3 m/s 760 mmHg 60%
15:00 +21°C° 0 mm 4 m/s 760 mmHg 62%
16:00 +21°C° 0 mm 4 m/s 760 mmHg 64%
17:00 +21°C° 0 mm 5 m/s 760 mmHg 66%
18:00 +19°C° 0 mm 5 m/s 760 mmHg 74%
19:00 +17°C° 0 mm 4 m/s 761 mmHg 82%
20:00 +15°C° 0 mm 4 m/s 761 mmHg 90%
21:00 +14°C° 0 mm 4 m/s 761 mmHg 91%
22:00 +14°C° 0 mm 4 m/s 761 mmHg 91%
23:00 +13°C° 0 mm 4 m/s 760 mmHg 91%

17 Abril, Sábado

Tempo Temperatura Precipitação Vento Pressão Humidade
00:00 +13°C° 0 mm 3 m/s 760 mmHg 93%
01:00 +13°C° 0 mm 3 m/s 760 mmHg 94%
02:00 +12°C° 0 mm 3 m/s 760 mmHg 95%
03:00 +12°C° 0 mm 3 m/s 760 mmHg 95%
04:00 +12°C° 0 mm 3 m/s 760 mmHg 94%
05:00 +12°C° 0 mm 3 m/s 760 mmHg 94%
06:00 +13°C° 0 mm 5 m/s 761 mmHg 77%
07:00 +15°C° 0 mm 6 m/s 761 mmHg 61%
08:00 +17°C° 0 mm 8 m/s 762 mmHg 44%
09:00 +18°C° 0 mm 8 m/s 762 mmHg 39%
10:00 +21°C° 0 mm 8 m/s 762 mmHg 34%
11:00 +22°C° 0 mm 8 m/s 762 mmHg 28%
12:00 +23°C° 0 mm 7 m/s 762 mmHg 28%
13:00 +23°C° 0 mm 6 m/s 762 mmHg 28%
14:00 +24°C° 0 mm 6 m/s 762 mmHg 29%
15:00 +23°C° 0 mm 4 m/s 762 mmHg 31%
16:00 +22°C° 0 mm 3 m/s 762 mmHg 33%
17:00 +21°C° 0 mm 2 m/s 763 mmHg 35%
18:00 +19°C° 0 mm 2 m/s 763 mmHg 40%
19:00 +17°C° 0 mm 3 m/s 764 mmHg 44%
20:00 +14°C° 0 mm 3 m/s 764 mmHg 48%
21:00 +14°C° 0 mm 3 m/s 764 mmHg 48%
22:00 +13°C° 0 mm 3 m/s 764 mmHg 48%
23:00 +14°C° 0 mm 2 m/s 764 mmHg 48%

18 Abril, Domingo

Tempo Temperatura Precipitação Vento Pressão Humidade
00:00 +13°C° 0 mm 3 m/s 764 mmHg 47%
01:00 +13°C° 0 mm 3 m/s 764 mmHg 46%
02:00 +12°C° 0 mm 3 m/s 764 mmHg 45%
03:00 +12°C° 0 mm 3 m/s 764 mmHg 45%
04:00 +12°C° 0 mm 3 m/s 764 mmHg 45%
05:00 +12°C° 0 mm 3 m/s 764 mmHg 46%
06:00 +16°C° 0 mm 3 m/s 764 mmHg 41%
07:00 +18°C° 0 mm 3 m/s 764 mmHg 36%
08:00 +21°C° 0 mm 2 m/s 764 mmHg 31%
09:00 +24°C° 0 mm 2 m/s 764 mmHg 28%
10:00 +25°C° 0 mm 2 m/s 764 mmHg 25%
11:00 +26°C° 0 mm 2 m/s 764 mmHg 22%
12:00 +26°C° 0 mm 2 m/s 764 mmHg 23%
13:00 +27°C° 0 mm 2 m/s 763 mmHg 24%
14:00 +27°C° 0 mm 2 m/s 763 mmHg 25%
15:00 +26°C° 0 mm 3 m/s 763 mmHg 30%
16:00 +25°C° 0 mm 3 m/s 763 mmHg 34%
17:00 +23°C° 0 mm 4 m/s 763 mmHg 39%
18:00 +20°C° 0 mm 4 m/s 763 mmHg 43%
19:00 +18°C° 0 mm 4 m/s 764 mmHg 48%
20:00 +15°C° 0 mm 4 m/s 764 mmHg 52%
21:00 +14°C° 0 mm 4 m/s 764 mmHg 54%
22:00 +14°C° 0 mm 4 m/s 763 mmHg 56%
23:00 +13°C° 0 mm 3 m/s 763 mmHg 58%
Mostrar mais

Necessitamos do seu Consentimento

A Meteoprog e os seus Fornecedores de Serviços podem armazenar e aceder a dados pessoais como cookies, identificadores do dispositivo ou outras tecnologias semelhantes existentes no seu dispositivo e processar estes dados para personalizar conteúdos e anúncios, assim como funcionalidades nas redes sociais e análise de tráfego.

  • Armazenar e/ou aceder a informações no seu dispositivo

    Os cookies, identificadores do dispositivo ou outras informações podem ser armazenados ou acedidos no seu dispositivo, para os fins acima indicados.

  • Anúncios e conteúdos personalizados, medição de anúncios e conteúdos, dados sobre o público-alvo e desenvolvimento de produtos

    Os anúncios e os conteúdos podem ser personalizados com base num perfil. Podem ser adicionados dados adicionais para uma maior personalização dos anúncios e dos conteúdos. A eficácia dos anúncios e dos conteúdos pode ser medida. Podem ser obtidas informações sobre o público que visualizou os anúncios e os conteúdos. Estes dados podem ser usados para desenvolver ou melhorar sistemas, softwares ou a experiência do utilizador.

Ao clicar em "Eu concordo”, permitirá o uso de cookies, identificadores do dispositivo e web beacons mencionados ou outras tecnologias semelhantes. As configurações do navegador do seu dispositivo podem ser alteradas.

Para certos fins, podem ser invocados interesses legítimos ao invés de consentimento. Pode ler mais informação sobre este assunto na nossa Política de Privacidade e Cookies.